Home   Weather   New Orleans   Past weeks

Flag for USA Past Weather in New Orleans, Louisiana, USA — Yesterday and Last 2 Weeks

Now
68 °F

Dense fog.


Feels Like: 68 °F
Forecast: 64 / 75 °F
Wind: 10 mph from South

Location: Lakefront Airport

Current Time: Jan 18, 2017 at 2:19:11 am

Latest Report: Jan 18, 2017 at 1:53 am


Visibility: 0 mi

Pressure: 30.11 "Hg

Humidity: 100%

Dew Point: 68 °F

Location of New OrleansLocation

Past Weather in New Orleans — Graph

°F

New Orleans Temperature Yesterday

Maximum temperature yesterday: 78 °F (at 2:37 pm)
Minimum temperature yesterday: 66 °F (at 12:53 am)
Average temperature yesterday: 69 °F

High & Low Weather Summary for the Past Weeks

 TemperatureHumidityPressure
High79 °F (Jan 16, 12:53 pm)100% (Jan 3, 1:05 am)30.76 "Hg (Jan 3, 1:05 am)
Low28 °F (Jan 7, 6:53 am)35% (Jan 8, 3:53 pm)29.85 "Hg (Jan 5, 3:53 pm)
Average58 °F86%30.19 "Hg
* Reported Jan 3 1:05 am — Jan 18 1:08 am, New Orleans, Weather by CustomWeather, © 2017

Note: Actual official high and low records may vary slightly from our data, if they occured in-between our weather recording intervals... More about our weather records

Advertising

New Orleans Weather History for the Previous 24 Hours

Scroll right to see more
 ConditionsComfort  
Time TempWeatherWind HumidityBarometerVisibility
1:08 am
Wed, Jan 18
68 °FDense fog.8 mph100%30.13 "Hg1 mi
12:36 am68 °FLow clouds.8 mph100%30.13 "Hg1 mi
12:23 am68 °FDense fog.10 mph100%30.13 "Hg1 mi
12:07 am68 °FDense fog.9 mph100%30.13 "Hg0 mi
11:53 pm
Tue, Jan 17
68 °FLow clouds.8 mph100%30.11 "Hg1 mi
11:11 pm66 °FMostly cloudy.6 mph100%30.14 "Hg2 mi
10:53 pm66 °FLow clouds.5 mph100%30.12 "Hg1 mi
10:40 pm67 °FOvercast.6 mph100%30.15 "Hg2 mi
9:53 pm67 °FPassing clouds.6 mph100%30.14 "Hg4 mi
8:53 pm69 °FClear.8 mph96%30.14 "Hg6 mi
7:53 pm69 °FClear.7 mph93%30.13 "Hg7 mi
6:53 pm71 °FClear.7 mph87%30.13 "Hg8 mi
5:53 pm72 °FPassing clouds.10 mph81%30.12 "Hg9 mi
4:53 pm73 °FPassing clouds.9 mph71%30.10 "Hg10 mi
3:53 pm76 °FSunny.15 mph62%30.10 "Hg10 mi
2:53 pm78 °FScattered clouds.10 mph64%30.09 "Hg9 mi
2:37 pm78 °FPartly sunny.13 mph66%30.11 "Hg9 mi
1:53 pm66 °FPartly sunny.5 mph90%30.09 "Hg10 mi
12:53 pm67 °FBroken clouds.9 mph87%30.11 "Hg9 mi
11:53 am76 °FScattered clouds.16 mph67%30.12 "Hg10 mi
10:53 am76 °FSunny.13 mph80%30.14 "Hg7 mi
9:53 am73 °FPassing clouds.13 mph94%30.14 "Hg5 mi
9:16 am70 °FPartly sunny.10 mph97%30.16 "Hg3 mi
8:53 am69 °FLow clouds.12 mph100%30.14 "Hg2 mi
8:27 am69 °FLow clouds.9 mph100%30.16 "Hg1 mi
8:15 am68 °FLow clouds.9 mph100%30.16 "Hg1 mi
7:53 am68 °FLow clouds.8 mph100%30.13 "Hg0 mi
7:21 am68 °FLow clouds.6 mph100%30.15 "Hg2 mi
7:07 am67 °FLow clouds.6 mph100%30.14 "Hg3 mi
6:40 am68 °FMostly cloudy.7 mph96%30.13 "Hg3 mi
6:09 am68 °FOvercast.7 mph96%30.13 "Hg4 mi
6:00 am67 °FMostly cloudy.6 mph100%30.13 "Hg4 mi
5:10 am67 °FMostly cloudy.7 mph100%30.12 "Hg4 mi
4:53 am66 °FMostly cloudy.7 mph100%30.09 "Hg4 mi
4:34 am66 °FPassing clouds.7 mph100%30.11 "Hg3 mi
3:53 am67 °FPassing clouds.8 mph97%30.09 "Hg4 mi
2:53 am67 °FPassing clouds.8 mph100%30.10 "Hg6 mi
Weather by CustomWeather, © 2017

See weather overviewHow to use our weather pages